When you browse on this site, cookies collect data to enhance your experience and personalize the content and advertising you see.
Visit our Privacy Policy to learn more. By continuing to use the site, you agree to this use of cookies and data.
  • In Netherlands
  • List of Countries
  • For 7 days
  • Water Temperature
  • Satellite Maps
  • Weather Map
  • Weather Widgets
  • user-avatar
    Login

    Hourly Weather Popov Porog

    Today, 21 February, Thursday

    Time Temperature Precipitation Wind Pressure Humidity
    00:00 -15°C° 0.1 mm 8 mps 739 mmHg 83%
    01:00 -15°C° 0.1 mm 8 mps 740 mmHg 82%
    02:00 -14°C° 0 mm 7 mps 741 mmHg 81%
    03:00 -14°C° 0.1 mm 7 mps 742 mmHg 82%
    04:00 -14°C° 0.1 mm 7 mps 743 mmHg 83%
    05:00 -14°C° 0.1 mm 7 mps 744 mmHg 84%
    06:00 -15°C° 0 mm 7 mps 744 mmHg 85%
    07:00 -15°C° 0 mm 6 mps 745 mmHg 86%
    08:00 -16°C° 0 mm 6 mps 747 mmHg 87%
    09:00 -16°C° 0 mm 6 mps 747 mmHg 87%
    10:00 -16°C° 0 mm 6 mps 748 mmHg 88%
    11:00 -14°C° 0 mm 5 mps 749 mmHg 88%
    12:00 -14°C° 0 mm 5 mps 750 mmHg 87%
    13:00 -13°C° 0 mm 5 mps 751 mmHg 87%
    14:00 -13°C° 0 mm 5 mps 751 mmHg 86%
    15:00 -14°C° 0 mm 5 mps 752 mmHg 87%
    16:00 -14°C° 0 mm 5 mps 753 mmHg 89%
    17:00 -15°C° 0 mm 4 mps 754 mmHg 90%
    18:00 -15°C° 0 mm 4 mps 754 mmHg 91%
    19:00 -16°C° 0 mm 4 mps 755 mmHg 92%
    20:00 -16°C° 0 mm 4 mps 756 mmHg 93%
    21:00 -17°C° 0 mm 4 mps 756 mmHg 93%
    22:00 -17°C° 0 mm 4 mps 757 mmHg 94%
    23:00 -18°C° 0 mm 4 mps 757 mmHg 94%

    Tomorrow, 22 February, Friday

    Time Temperature Precipitation Wind Pressure Humidity
    00:00 -18°C° 0 mm 4 mps 758 mmHg 93%
    01:00 -18°C° 0 mm 4 mps 759 mmHg 92%
    02:00 -18°C° 0 mm 4 mps 759 mmHg 91%
    03:00 -18°C° 0 mm 3 mps 760 mmHg 90%
    04:00 -18°C° 0 mm 3 mps 760 mmHg 89%
    05:00 -18°C° 0 mm 3 mps 761 mmHg 89%
    06:00 -19°C° 0 mm 3 mps 761 mmHg 88%
    07:00 -19°C° 0 mm 3 mps 762 mmHg 88%
    08:00 -19°C° 0 mm 3 mps 763 mmHg 87%
    09:00 -18°C° 0 mm 3 mps 763 mmHg 86%
    10:00 -17°C° 0 mm 3 mps 763 mmHg 85%
    11:00 -16°C° 0 mm 3 mps 764 mmHg 83%
    12:00 -15°C° 0 mm 3 mps 764 mmHg 84%
    13:00 -14°C° 0 mm 3 mps 764 mmHg 84%
    14:00 -13°C° 0 mm 3 mps 764 mmHg 84%
    15:00 -14°C° 0 mm 3 mps 764 mmHg 86%
    16:00 -14°C° 0 mm 2 mps 764 mmHg 87%
    17:00 -15°C° 0 mm 2 mps 764 mmHg 89%
    18:00 -15°C° 0 mm 2 mps 763 mmHg 88%
    19:00 -16°C° 0 mm 2 mps 763 mmHg 86%
    20:00 -16°C° 0 mm 2 mps 763 mmHg 85%
    21:00 -16°C° 0 mm 3 mps 762 mmHg 83%
    22:00 -16°C° 0 mm 3 mps 762 mmHg 80%
    23:00 -16°C° 0 mm 3 mps 761 mmHg 78%

    Day after tomorrow, 23 February, Saturday

    Time Temperature Precipitation Wind Pressure Humidity
    00:00 -15°C° 0 mm 4 mps 760 mmHg 75%
    01:00 -14°C° 0 mm 4 mps 760 mmHg 73%
    02:00 -13°C° 0 mm 5 mps 759 mmHg 70%
    03:00 -14°C° 0.4 mm 6 mps 757 mmHg 77%
    04:00 -12°C° 0.4 mm 6 mps 756 mmHg 84%
    05:00 -12°C° 0.4 mm 6 mps 755 mmHg 91%
    06:00 -11°C° 0.8 mm 6 mps 754 mmHg 92%
    07:00 -11°C° 0.8 mm 6 mps 753 mmHg 92%
    08:00 -10°C° 0.8 mm 6 mps 752 mmHg 92%
    09:00 -8°C° 0.1 mm 6 mps 752 mmHg 92%
    10:00 -5°C° 0.1 mm 5 mps 751 mmHg 92%
    11:00 -1°C° 0.1 mm 5 mps 751 mmHg 93%
    12:00 -1°C° 0 mm 5 mps 750 mmHg 95%
    13:00 -1°C° 0 mm 5 mps 750 mmHg 97%
    14:00 0°C° 0 mm 5 mps 750 mmHg 99%
    15:00 0°C° 0 mm 5 mps 750 mmHg 99%
    16:00 0°C° 0 mm 5 mps 750 mmHg 98%
    17:00 0°C° 0 mm 4 mps 750 mmHg 98%
    18:00 0°C° 0 mm 4 mps 750 mmHg 98%
    19:00 0°C° 0 mm 4 mps 750 mmHg 97%
    20:00 0°C° 0 mm 4 mps 750 mmHg 97%
    21:00 -1°C° 0 mm 4 mps 750 mmHg 96%
    22:00 -1°C° 0 mm 4 mps 751 mmHg 94%
    23:00 -1°C° 0 mm 4 mps 751 mmHg 93%

    24 February, Sunday

    Time Temperature Precipitation Wind Pressure Humidity
    00:00 -1°C° 0 mm 4 mps 751 mmHg 93%
    01:00 -2°C° 0 mm 4 mps 751 mmHg 93%
    02:00 -2°C° 0 mm 4 mps 751 mmHg 93%
    03:00 -2°C° 0 mm 3 mps 752 mmHg 93%
    04:00 -2°C° 0 mm 3 mps 752 mmHg 93%
    05:00 -2°C° 0 mm 3 mps 752 mmHg 92%
    06:00 -4°C° 0 mm 3 mps 752 mmHg 93%
    07:00 -5°C° 0 mm 3 mps 752 mmHg 93%
    08:00 -4°C° 0 mm 2 mps 752 mmHg 94%
    09:00 -3°C° 0 mm 2 mps 752 mmHg 94%
    10:00 -2°C° 0 mm 3 mps 752 mmHg 94%
    11:00 -1°C° 0 mm 3 mps 752 mmHg 94%
    12:00 0°C° 0 mm 3 mps 751 mmHg 95%
    13:00 0°C° 0 mm 3 mps 750 mmHg 96%
    14:00 0°C° 0 mm 3 mps 750 mmHg 97%
    15:00 -1°C° 0.3 mm 4 mps 749 mmHg 96%
    16:00 -1°C° 0.3 mm 5 mps 748 mmHg 96%
    17:00 -1°C° 0.3 mm 5 mps 747 mmHg 96%
    18:00 -1°C° 1 mm 5 mps 746 mmHg 95%
    19:00 0°C° 1 mm 5 mps 745 mmHg 95%
    20:00 0°C° 1 mm 5 mps 744 mmHg 95%
    21:00 -1°C° 0.1 mm 6 mps 744 mmHg 94%
    22:00 -1°C° 0.1 mm 6 mps 744 mmHg 92%
    23:00 -1°C° 0.1 mm 7 mps 743 mmHg 91%

    25 February, Monday

    Time Temperature Precipitation Wind Pressure Humidity
    00:00 -1°C° 0 mm 7 mps 744 mmHg 88%
    01:00 -2°C° 0 mm 7 mps 744 mmHg 84%
    02:00 -3°C° 0 mm 7 mps 744 mmHg 81%
    03:00 -3°C° 0 mm 7 mps 745 mmHg 81%
    04:00 -4°C° 0 mm 7 mps 745 mmHg 80%
    05:00 -4°C° 0 mm 6 mps 745 mmHg 80%
    06:00 -4°C° 0 mm 6 mps 745 mmHg 81%
    07:00 -4°C° 0 mm 6 mps 744 mmHg 82%
    08:00 -4°C° 0 mm 6 mps 744 mmHg 83%
    09:00 -3°C° 0.1 mm 6 mps 744 mmHg 82%
    10:00 -3°C° 0.1 mm 6 mps 743 mmHg 80%
    11:00 -2°C° 0.1 mm 6 mps 743 mmHg 79%
    12:00 -2°C° 0.2 mm 7 mps 743 mmHg 79%
    13:00 -2°C° 0.2 mm 8 mps 744 mmHg 79%
    14:00 -2°C° 0.2 mm 8 mps 744 mmHg 79%
    15:00 -2°C° 0.1 mm 7 mps 744 mmHg 81%
    16:00 -2°C° 0.1 mm 7 mps 745 mmHg 82%
    17:00 -3°C° 0.1 mm 6 mps 746 mmHg 84%
    18:00 -3°C° 0.1 mm 6 mps 746 mmHg 84%
    19:00 -3°C° 0.1 mm 6 mps 746 mmHg 84%
    20:00 -2°C° 0.1 mm 5 mps 747 mmHg 85%
    21:00 -4°C° 0 mm 5 mps 747 mmHg 87%
    22:00 -4°C° 0 mm 4 mps 747 mmHg 89%
    23:00 -5°C° 0 mm 4 mps 747 mmHg 91%

    26 February, Tuesday

    Time Temperature Precipitation Wind Pressure Humidity
    00:00 -6°C° 0 mm 3 mps 747 mmHg 92%
    01:00 -7°C° 0 mm 3 mps 747 mmHg 94%
    02:00 -7°C° 0 mm 3 mps 746 mmHg 95%
    03:00 -7°C° 0 mm 2 mps 746 mmHg 95%
    04:00 -7°C° 0 mm 2 mps 745 mmHg 96%
    05:00 -8°C° 0 mm 2 mps 745 mmHg 97%
    06:00 -8°C° 0 mm 2 mps 745 mmHg 97%
    07:00 -8°C° 0 mm 2 mps 744 mmHg 96%
    08:00 -8°C° 0 mm 2 mps 744 mmHg 96%
    09:00 -7°C° 0 mm 2 mps 744 mmHg 95%
    10:00 -6°C° 0 mm 2 mps 745 mmHg 94%
    11:00 -6°C° 0 mm 2 mps 745 mmHg 93%
    12:00 -5°C° 0 mm 2 mps 745 mmHg 93%
    13:00 -5°C° 0 mm 2 mps 745 mmHg 94%
    14:00 -4°C° 0 mm 2 mps 746 mmHg 94%
    15:00 -5°C° 0 mm 2 mps 746 mmHg 94%
    16:00 -5°C° 0 mm 2 mps 747 mmHg 95%
    17:00 -6°C° 0 mm 2 mps 747 mmHg 95%
    18:00 -7°C° 0 mm 2 mps 748 mmHg 96%
    19:00 -7°C° 0 mm 2 mps 748 mmHg 96%
    20:00 -8°C° 0 mm 2 mps 749 mmHg 96%
    21:00 -8°C° 0 mm 2 mps 749 mmHg 96%
    22:00 -8°C° 0 mm 2 mps 749 mmHg 96%
    23:00 -8°C° 0 mm 1 mps 749 mmHg 96%
    Show more